Tracking 28799 objects as of 17-Apr-2024
HD Live streaming from Space Station
objects crossing your sky now

FLOCK 4V 11

Track FLOCK 4V 11 now!
10-day predictions
FLOCK 4V 11 is classified as:


NORAD ID: 46285
Int'l Code: 2020-061P
Perigee: 454.3 km
Apogee: 459.2 km
Inclination: 97.4 °
Period: 93.6 minutes
Semi major axis: 6827 km
RCS: Unknown
Launch date: September 3, 2020
Source: United States (US)
Launch site: FRENCH GUIANA (FRGUI)
Your satellite tracking list
Your tracking list is empty




NASA's NSSDC Master Catalog

Two Line Element Set (TLE):
1 46285U 20061P   24107.66116895  .00044743  00000-0  11624-2 0  9998
2 46285  97.3596 180.6037 0003606  77.6828 282.4821 15.38813566200470
Source of the keplerian elements: AFSPC